FW5335 Weather Reports


time (UTC)temp
F
wind
direction
speed
knots
gust
knots
rain 1hr
in
rain 24hr
in
rain mn
in
humidity
%
barometer
mb
20260506061521 50 68 3.5 8.7 0.00 0.00 0.00 80 1014.1
20260506060559 50 68 3.5 7.0 0.00 0.00 0.00 80 1014.1
20260506050518 50 68 1.7 3.5 0.00 0.00 0.00 80 1014.0
20260506044519 50 68 3.5 7.0 0.00 0.00 0.00 79 1013.9
20260506043519 50 68 1.7 7.0 0.00 0.00 0.00 79 1013.9
20260506042523 50 68 2.6 5.2 0.00 0.00 0.00 79 1013.8
20260506041518 50 68 0.9 3.5 0.00 0.00 0.00 79 1013.7
20260506040519 50 68 1.7 3.5 0.00 0.00 0.00 79 1013.7
20260506035539 50 68 1.7 3.5 0.00 0.00 0.00 78 1013.6
20260506034518 50 23 1.7 4.3 0.00 0.00 0.00 78 1013.7
20260506033517 50 45 1.7 3.5 0.00 0.00 0.00 78 1013.8
20260506032528 51 23 1.7 3.5 0.00 0.00 0.00 78 1013.7
20260506031524 51 45 1.7 6.1 0.00 0.00 0.00 78 1013.7
20260506030521 51 23 1.7 4.3 0.00 0.00 0.00 78 1013.8
20260506025518 51 23 1.7 4.3 0.00 0.00 0.00 77 1013.8
20260506024525 51 23 0.9 3.5 0.00 0.00 0.00 77 1013.7
20260506023517 51 23 2.6 6.1 0.00 0.00 0.00 77 1013.6
20260506022517 51 23 1.7 3.5 0.00 0.00 0.00 77 1013.7
20260506021518 51 23 2.6 7.0 0.00 0.00 0.00 77 1013.7
20260506020533 50 23 2.6 6.1 0.00 0.00 0.00 77 1013.7
20260506015540 50 23 1.7 3.5 0.00 0.00 0.00 77 1013.7
20260506014518 50 0 1.7 3.5 0.00 0.00 0.00 76 1013.7
20260506013519 50 45 2.6 7.0 0.00 0.00 0.00 76 1013.8
20260506012517 50 0 2.6 6.1 0.00 0.00 0.00 76 1013.9
20260506011527 50 0 1.7 4.3 0.00 0.00 0.00 76 1013.9
20260506010541 50 315 0.9 3.5 0.00 0.00 0.00 76 1014.0
20260506005520 51 315 1.7 3.5 0.00 0.00 0.00 75 1014.2
20260506004523 51 23 1.7 3.5 0.00 0.00 0.00 76 1014.2
20260506003518 51 23 1.7 2.6 0.00 0.00 0.00 75 1014.2
20260506002518 51 338 1.7 5.2 0.00 0.00 0.00 75 1014.1
20260506001518 51 23 2.6 7.0 0.00 0.00 0.00 75 1014.2
20260506000518 51 23 0.9 2.6 0.00 0.00 0.00 75 1014.2
20260505235518 51 23 1.7 3.5 0.00 0.00 0.00 75 1014.1
20260505234518 51 315 0.9 3.5 0.00 0.00 0.00 75 1014.2
20260505233518 51 315 0.9 3.5 0.00 0.00 0.00 75 1014.4
20260505232518 51 23 0.9 2.6 0.00 0.00 0.00 74 1014.3
20260505231518 51 23 2.6 3.5 0.00 0.00 0.00 74 1014.4
20260505230517 51 0 3.5 5.2 0.00 0.00 0.00 74 1014.5
20260505225538 51 338 1.7 3.5 0.00 0.00 0.00 74 1014.6
20260505224545 52 0 1.7 3.5 0.00 0.00 0.00 74 1014.3
20260505223518 52 0 1.7 5.2 0.00 0.00 0.00 73 1014.4
20260505222547 52 23 2.6 4.3 0.00 0.00 0.00 73 1014.4
20260505221518 52 0 2.6 8.7 0.00 0.00 0.00 73 1014.4
20260505220518 52 45 1.7 4.3 0.00 0.00 0.00 72 1014.5
20260505215518 52 23 0.9 2.6 0.00 0.00 0.00 70 1014.5
20260505214518 53 23 1.7 4.3 0.00 0.00 0.00 70 1014.6
20260505213535 53 23 3.5 7.0 0.00 0.00 0.00 70 1014.5
20260505212518 53 23 4.3 8.7 0.00 0.00 0.00 69 1014.5
20260505211537 53 23 4.3 8.7 0.00 0.00 0.00 68 1014.5
20260505210523 53 23 2.6 7.8 0.00 0.00 0.00 68 1014.5
20260505205523 53 23 5.2 8.7 0.00 0.00 0.00 67 1014.1
20260505204538 54 23 5.2 9.6 0.00 0.00 0.00 67 1014.3
20260505203518 54 23 5.2 7.8 0.00 0.00 0.00 67 1014.3
20260505202519 54 23 3.5 7.0 0.00 0.00 0.00 67 1014.2
20260505201518 54 45 2.6 4.3 0.00 0.00 0.00 67 1014.2
20260505200538 54 23 3.5 7.8 0.00 0.00 0.00 67 1014.3
20260505195517 54 315 2.6 5.2 0.00 0.00 0.00 66 1014.3
20260505194538 54 23 1.7 4.3 0.00 0.00 0.00 65 1013.9
20260505193517 54 0 2.6 3.5 0.00 0.00 0.00 65 1014.0
20260505192518 55 338 3.5 7.0 0.00 0.00 0.00 64 1013.9
20260505191520 55 23 2.6 6.1 0.00 0.00 0.00 64 1014.0
20260505190523 55 315 2.6 6.1 0.00 0.00 0.00 63 1013.9
20260505185520 56 315 2.6 5.2 0.00 0.00 0.00 63 1013.5
20260505184519 56 338 3.5 7.8 0.00 0.00 0.00 62 1013.5
20260505183520 57 23 4.3 8.7 0.00 0.00 0.00 61 1013.6
20260505182520 57 0 6.1 10.4 0.00 0.00 0.00 61 1013.5
20260505181520 57 23 5.2 11.3 0.00 0.00 0.00 60 1013.6
20260505180518 57 23 3.5 8.7 0.00 0.00 0.00 62 1013.7
20260505175519 57 338 5.2 8.7 0.00 0.00 0.00 62 1013.6
20260505174519 57 338 5.2 11.3 0.00 0.00 0.00 62 1013.7
20260505173615 57 23 7.0 14.8 0.00 0.00 0.00 61 1013.7
20260505172520 58 23 5.2 9.6 0.00 0.00 0.00 60 1013.5
20260505171520 58 23 6.1 10.4 0.00 0.00 0.00 59 1013.6
20260505170520 58 23 4.3 11.3 0.00 0.00 0.00 60 1013.9
20260505165519 58 338 4.3 8.7 0.00 0.00 0.00 58 1013.9
20260505164605 59 338 5.2 9.6 0.00 0.00 0.00 57 1013.8
20260505163539 59 338 5.2 9.6 0.00 0.00 0.00 57 1013.9
20260505162519 60 0 5.2 9.6 0.00 0.00 0.00 55 1013.8
20260505161525 60 0 7.0 13.0 0.00 0.00 0.00 53 1013.8
20260505160519 62 23 5.2 10.4 0.00 0.00 0.00 53 1013.9
20260505152519 61 0 7.0 12.2 0.00 0.00 0.00 53 1014.0
20260505151519 61 0 6.1 11.3 0.00 0.00 0.00 53 1014.0
20260505150519 61 0 6.1 11.3 0.00 0.00 0.00 56 1014.0
20260505123519 63 23 6.1 11.3 0.00 0.00 0.00 53 1014.8
20260505122519 64 0 7.0 12.2 0.00 0.00 0.00 50 1014.9
20260505121519 64 23 2.6 8.7 0.00 0.00 0.00 57 1014.8
20260505120539 64 0 4.3 9.6 0.00 0.00 0.00 52 1015.0
20260505115521 62 0 5.2 10.4 0.00 0.00 0.00 53 1015.0
20260505114524 63 0 7.0 12.2 0.00 0.00 0.00 54 1015.0
20260505113519 63 0 4.3 9.6 0.00 0.00 0.00 60 1015.1
20260505112519 62 0 5.2 12.2 0.00 0.00 0.00 59 1015.1
20260505111519 63 0 4.3 10.4 0.00 0.00 0.00 57 1015.4
20260505110520 63 0 6.1 11.3 0.00 0.00 0.00 57 1015.4
20260505101519 60 0 5.2 12.2 0.00 0.00 0.00 58 1015.4
20260505100520 61 68 4.3 8.7 0.00 0.00 0.00 58 1015.4
20260505095518 60 45 5.2 12.2 0.00 0.00 0.00 60 1015.4
20260505094519 60 338 4.3 9.6 0.00 0.00 0.00 62 1015.5
20260505093619 60 23 7.0 13.0 0.00 0.00 0.00 61 1015.4
20260505092524 60 0 6.1 10.4 0.00 0.00 0.00 59 1015.4
20260505091519 61 45 5.2 13.0 0.00 0.00 0.00 63 1015.4
20260505090519 60 45 3.5 8.7 0.00 0.00 0.00 63 1015.4
20260505085519 59 0 5.2 10.4 0.00 0.00 0.00 63 1015.4
20260505084519 58 0 6.1 13.0 0.00 0.00 0.00 65 1015.3
20260505083519 57 0 6.1 13.0 0.00 0.00 0.00 68 1015.1
20260505082519 56 0 5.2 9.6 0.00 0.00 0.00 71 1015.2